Weather History for Henderson, KY

Change the Weather History Date:

Monday, November 12, 2012

  Actual Average Record
Temperature  
Mean Temperature 44 °F -  
Max Temperature 59 °F 55 °F 77 °F (1949)
Min Temperature 30 °F 36 °F 18 °F (1976)
Degree Days  
Heating Degree Days 20    
Moisture  
Dew Point 29 °F    
Average Humidity 63    
Maximum Humidity 77    
Minimum Humidity 39    
Precipitation  
Precipitation 0.57 in - - ()
Sea Level Pressure  
Sea Level Pressure 30.28 in    
Wind  
Wind Speed 13 mph (West)    
Max Wind Speed 22 mph    
Max Gust Speed 33 mph    
Visibility 10 miles    
Events      
Averages and records for this station are not official NWS values.
T = Trace of Precipitation, MM = Missing Value Source: NWS Daily Summary

Daily Weather History Graph

Daily Weather History Graph

Search for Another Location

Airport:

Trip Planner

Search our weather history database for the weather conditions in past years. The results will help you decide how hot, cold, wet, or windy it might be!

Date:

Astronomy

Nov. 12, 2012 Rise Set
Actual Time 6:28 AM CST 4:41 PM CST
Civil Twilight 6:00 AM CST 5:09 PM CST
Nautical Twilight 5:28 AM CST 5:40 PM CST
Astronomical Twilight 4:57 AM CST 6:11 PM CST
Moon 4:54 AM CST (11/12) 3:45 PM CST (11/12)
Length of Visible Light 11h 08m
Length of Day
10h 12m
Waning Crescent, 2% of the Moon is Illuminated
Nov 12
Waning Crescent
Nov 13
New
Nov 20
First Quarter
Nov 28
Full
Dec 6
Last Quarter

Hourly Weather History & Observations

Time (CST) Temp. Windchill Dew Point Humidity Pressure Visibility Wind Dir Wind Speed Gust Speed Precip Events Conditions
12:15 AM 57.2 °F - 48.2 °F 72% 29.96 in 10.0 mi South 19.6 mph 33.4 mph 0.01 in   Overcast
12:35 AM 59.0 °F - 48.2 °F 67% 29.97 in 10.0 mi South 17.3 mph 26.5 mph 0.01 in   Overcast
12:55 AM 57.2 °F - 50.0 °F 77% 29.99 in 10.0 mi WSW 13.8 mph 21.9 mph 0.03 in   Overcast
1:15 AM 57.2 °F - 50.0 °F 77% 30.00 in 5.0 mi SW 13.8 mph - 0.07 in   Overcast
1:35 AM 53.6 °F - 46.4 °F 77% 30.00 in 6.0 mi NW 10.4 mph - 0.09 in   Overcast
1:55 AM 53.6 °F - 44.6 °F 72% 30.02 in 6.0 mi WNW 13.8 mph - 0.17 in   Overcast
2:15 AM 51.8 °F - 44.6 °F 76% 30.04 in 7.0 mi WNW 11.5 mph - 0.08 in   Overcast
2:35 AM 51.8 °F - 44.6 °F 76% 30.04 in 10.0 mi WNW 8.1 mph - 0.11 in   Mostly Cloudy
2:55 AM 51.8 °F - 44.6 °F 76% 30.05 in 10.0 mi WNW 10.4 mph - 0.12 in   Overcast
3:15 AM 51.8 °F - 44.6 °F 76% 30.05 in 8.0 mi NW 9.2 mph - 0.04 in   Overcast
3:35 AM 51.8 °F - 44.6 °F 76% 30.07 in 10.0 mi WNW 11.5 mph - 0.06 in   Overcast
3:55 AM 50.0 °F - 42.8 °F 76% 30.06 in 10.0 mi WNW 11.5 mph - 0.09 in   Overcast
4:15 AM 46.4 °F 40.4 °F 39.2 °F 76% 30.09 in 10.0 mi NW 13.8 mph 21.9 mph 0.02 in   Overcast
4:35 AM 46.4 °F 40.4 °F 37.4 °F 71% 30.12 in 10.0 mi WNW 13.8 mph 18.4 mph 0.04 in   Overcast
4:55 AM 44.6 °F 37.4 °F 37.4 °F 76% 30.12 in 10.0 mi WNW 16.1 mph - 0.07 in   Overcast
5:15 AM 42.8 °F 35.1 °F 35.6 °F 76% 30.11 in 10.0 mi WNW 16.1 mph - N/A   Overcast
5:35 AM 42.8 °F 33.8 °F 33.8 °F 70% 30.14 in 10.0 mi WNW 21.9 mph 31.1 mph 0.01 in   Overcast
5:55 AM 41.0 °F 32.8 °F 33.8 °F 76% 30.18 in 10.0 mi WNW 16.1 mph 20.7 mph 0.02 in   Overcast
6:15 AM 41.0 °F 34.7 °F 33.8 °F 76% 30.18 in 10.0 mi WNW 10.4 mph - 0.01 in   Overcast
6:35 AM 39.2 °F 31.6 °F 30.2 °F 70% 30.19 in 10.0 mi NW 12.7 mph 21.9 mph 0.03 in   Overcast
6:55 AM 39.2 °F 29.8 °F 30.2 °F 70% 30.22 in 10.0 mi NW 18.4 mph 23.0 mph 0.04 in   Overcast
7:15 AM 39.2 °F 31.6 °F 30.2 °F 70% 30.24 in 10.0 mi NW 12.7 mph - N/A   Overcast
7:35 AM 37.4 °F 28.2 °F 30.2 °F 75% 30.25 in 10.0 mi NW 16.1 mph - 0.01 in   Overcast
7:55 AM 37.4 °F 28.2 °F 28.4 °F 70% 30.25 in 8.0 mi NW 16.1 mph 25.3 mph 0.02 in   Overcast
8:15 AM 37.4 °F 28.2 °F 28.4 °F 70% 30.27 in 10.0 mi NW 16.1 mph 20.7 mph 0.01 in   Overcast
8:35 AM 37.4 °F 28.9 °F 28.4 °F 70% 30.28 in 10.0 mi WNW 13.8 mph - 0.01 in   Overcast
8:55 AM 37.4 °F 28.9 °F 28.4 °F 70% 30.28 in 10.0 mi WNW 13.8 mph - 0.01 in   Overcast
9:15 AM 37.4 °F 28.2 °F 28.4 °F 70% 30.29 in 10.0 mi WNW 16.1 mph 20.7 mph N/A   Overcast
9:35 AM 37.4 °F 28.9 °F 26.6 °F 65% 30.30 in 10.0 mi WNW 13.8 mph - N/A   Overcast
9:55 AM 37.4 °F 28.5 °F 26.6 °F 65% 30.31 in 10.0 mi WNW 15.0 mph 25.3 mph N/A   Mostly Cloudy
10:15 AM 39.2 °F 29.8 °F 26.6 °F 61% 30.32 in 10.0 mi WNW 18.4 mph 25.3 mph N/A   Mostly Cloudy
10:35 AM 39.2 °F 31.2 °F 26.6 °F 61% 30.32 in 10.0 mi WNW 13.8 mph 20.7 mph N/A   Mostly Cloudy
10:55 AM 39.2 °F 29.8 °F 26.6 °F 61% 30.33 in 10.0 mi WNW 18.4 mph 24.2 mph N/A   Partly Cloudy
11:15 AM 41.0 °F 31.6 °F 26.6 °F 57% 30.33 in 10.0 mi WNW 20.7 mph 24.2 mph N/A   Clear
11:35 AM 42.8 °F 35.4 °F 26.6 °F 53% 30.33 in 10.0 mi WNW 15.0 mph 20.7 mph N/A   Clear
11:55 AM 42.8 °F 34.3 °F 24.8 °F 49% 30.34 in 10.0 mi WNW 19.6 mph 23.0 mph N/A   Clear
12:15 PM 42.8 °F 35.4 °F 24.8 °F 49% 30.34 in 10.0 mi WNW 15.0 mph 24.2 mph N/A   Clear
12:35 PM 42.8 °F 34.5 °F 24.8 °F 49% 30.34 in 10.0 mi WNW 18.4 mph 21.9 mph N/A   Clear
12:55 PM 44.6 °F 37.4 °F 24.8 °F 46% 30.33 in 10.0 mi WNW 16.1 mph 19.6 mph N/A   Clear
1:15 PM 44.6 °F 38.4 °F 24.8 °F 46% 30.33 in 10.0 mi NW 12.7 mph 19.6 mph N/A   Clear
1:35 PM 44.6 °F 37.8 °F 24.8 °F 46% 30.34 in 10.0 mi NW 15.0 mph 23.0 mph N/A   Clear
1:55 PM 44.6 °F 38.4 °F 23.0 °F 43% 30.33 in 10.0 mi WNW 12.7 mph 19.6 mph N/A   Clear
2:15 PM 44.6 °F 38.8 °F 23.0 °F 43% 30.33 in 10.0 mi NW 11.5 mph 17.3 mph N/A   Clear
2:35 PM 44.6 °F 39.2 °F 23.0 °F 43% 30.33 in 10.0 mi WNW 10.4 mph - N/A   Clear
2:55 PM 44.6 °F 39.2 °F 24.8 °F 46% 30.34 in 10.0 mi West 10.4 mph - N/A   Clear
3:15 PM 44.6 °F 39.2 °F 23.0 °F 43% 30.34 in 10.0 mi WNW 10.4 mph - N/A   Clear
3:35 PM 44.6 °F 38.4 °F 21.2 °F 39% 30.34 in 10.0 mi West 12.7 mph - N/A   Clear
3:55 PM 42.8 °F 37.0 °F 21.2 °F 42% 30.35 in 10.0 mi West 10.4 mph - N/A   Clear
4:35 PM 42.8 °F 38.0 °F 21.2 °F 42% 30.37 in 10.0 mi West 8.1 mph - N/A   Clear
4:55 PM 37.4 °F 32.8 °F 21.2 °F 52% 30.37 in 10.0 mi WNW 5.8 mph - N/A   Clear
5:35 PM 37.4 °F 33.8 °F 21.2 °F 52% 30.39 in 10.0 mi WSW 4.6 mph - N/A   Clear
5:55 PM 35.6 °F 31.7 °F 21.2 °F 56% 30.40 in 10.0 mi SW 4.6 mph - N/A   Clear
6:15 PM 35.6 °F 32.8 °F 21.2 °F 56% 30.40 in 10.0 mi SW 3.5 mph - N/A   Clear
6:35 PM 35.6 °F 32.8 °F 21.2 °F 56% 30.41 in 10.0 mi SW 3.5 mph - N/A   Clear
6:55 PM 33.8 °F 29.6 °F 21.2 °F 60% 30.41 in 10.0 mi SSW 4.6 mph - N/A   Clear
7:15 PM 32.0 °F 28.7 °F 21.2 °F 64% 30.41 in 10.0 mi SSW 3.5 mph - N/A   Clear
7:35 PM 32.0 °F - 21.2 °F 64% 30.42 in 10.0 mi Calm Calm - N/A   Clear
7:55 PM 32.0 °F 28.7 °F 21.2 °F 64% 30.43 in 10.0 mi SW 3.5 mph - N/A   Clear
8:35 PM 30.2 °F - 21.2 °F 69% 30.43 in 10.0 mi Calm Calm - N/A   Clear
8:55 PM 30.2 °F 26.7 °F 21.2 °F 69% 30.43 in 10.0 mi SW 3.5 mph - N/A   Clear
9:15 PM 30.2 °F - 19.4 °F 64% 30.44 in 10.0 mi Calm Calm - N/A   Clear
9:35 PM 30.2 °F 25.4 °F 21.2 °F 69% 30.44 in 10.0 mi SSW 4.6 mph - N/A   Clear
9:55 PM 30.2 °F 26.7 °F 19.4 °F 64% 30.45 in 10.0 mi WSW 3.5 mph - N/A   Clear
10:15 PM 30.2 °F 25.4 °F 19.4 °F 64% 30.45 in 10.0 mi WSW 4.6 mph - N/A   Clear
10:35 PM 32.0 °F 28.7 °F 21.2 °F 64% 30.45 in 10.0 mi WSW 3.5 mph - N/A   Clear
10:55 PM 30.2 °F - 19.4 °F 64% 30.45 in 10.0 mi Calm Calm - N/A   Clear
11:15 PM 32.0 °F - 19.4 °F 60% 30.45 in 10.0 mi Calm Calm - N/A   Clear
11:35 PM 32.0 °F - 19.4 °F 60% 30.45 in 10.0 mi Calm Calm - N/A   Clear
11:55 PM 30.2 °F - 19.4 °F 64% 30.45 in 10.0 mi Calm Calm - N/A   Clear